[[{"header":{"parameterUnit":"m.s-1","parameterCategory":1,"la1":30.2991,"la2":30.254,"lo1":-89.0895,"lo2":-89.0444,"dy":0.0017,"dx":0.0017,"nx":28,"ny":28,"refTime":"2024-10-09T03:00:00:Z","depth":0,"parameterNumber":2,"parameterNumberName":"U-component_of_WINDS"},"data":[0,0,0,0,0,0,0,0,0,0,0,0,0,0,0,0,0,0,0,0,0,0,0,0,0,0,0,0,0,0,0,0,0,0,0,0,0,0,0,0,0,0,0,0,0,0,0,0,0,0,0,0,0,0,0,0,0,0,-1.2612,-1.2613,0,-1.2706,-1.2707,-1.2708,-1.2682,-1.268,-1.2678,-1.2676,-1.2775,-1.278,-1.2784,0,0,0,0,0,0,0,0,0,0,0,0,0,-1.2412,-1.2416,-1.2612,-1.2613,-1.2614,-1.2706,-1.2707,-1.2708,-1.2682,-1.268,-1.2678,-1.2676,-1.2774,-1.2779,-1.2785,0,0,0,0,0,0,0,0,0,0,0,0,0,-1.2502,-1.2417,-1.2612,-1.2612,-1.2613,-1.2706,-1.2707,-1.2709,-1.2683,-1.268,-1.2677,-1.2675,-1.2772,-1.2779,-1.2785,-1.2883,0,0,-1.2805,-1.2808,0,0,0,0,0,0,0,0,-1.2497,-1.2509,-1.2611,-1.2613,-1.2614,-1.2679,-1.2673,-1.2767,-1.2684,-1.2657,-1.2676,-1.2673,-1.2746,-1.2755,-1.2779,-1.2888,-1.2892,-1.2806,-1.281,-1.2813,-1.2815,0,0,0,0,0,0,0,-1.2491,-1.2505,-1.2649,-1.2613,-1.2614,-1.2609,-1.2618,-1.2691,-1.2716,-1.2659,-1.2657,-1.2668,-1.2746,-1.2772,-1.2781,-1.2894,-1.2806,-1.2812,-1.2816,-1.2818,-1.3089,-1.3092,0,0,0,0,0,0,-1.2483,-1.25,-1.2646,-1.2652,-1.2547,-1.2615,-1.2625,-1.2661,-1.2715,-1.2721,-1.2671,-1.2667,-1.2762,-1.2773,-1.2784,-1.2904,-1.2813,-1.2819,-1.2823,-1.3086,-1.309,-1.3093,0,0,0,0,0,0,-1.2479,-1.2497,-1.2643,-1.2576,-1.2594,-1.2621,-1.2662,-1.2665,-1.2691,-1.2724,-1.2729,-1.2693,-1.2761,-1.2775,-1.2859,-1.2907,-1.2822,-1.2828,-1.3082,-1.3087,-1.3092,-1.3143,0,0,0,0,0,0,-1.2473,-1.2495,-1.2532,-1.2577,-1.2598,-1.2716,-1.2665,-1.2669,-1.2702,-1.2698,-1.2746,-1.2752,-1.2759,-1.2849,-1.2865,-1.2914,-1.2833,-1.3078,-1.3084,-1.309,-1.3137,-1.3149,-1.3159,0,0,0,0,0,-1.2466,-1.2544,-1.2535,-1.2552,-1.2645,-1.2718,-1.273,-1.2737,-1.2706,-1.2744,-1.2765,-1.275,-1.2898,-1.2858,-1.2876,-1.2928,-1.3075,-1.3083,-1.309,-1.3133,-1.3147,-1.3159,0,0,0,0,0,0,-1.2506,-1.255,-1.254,-1.2634,-1.2672,-1.2714,-1.2762,-1.2752,-1.2801,-1.2795,-1.2802,-1.2813,-1.2899,-1.2921,-1.2876,-1.3026,-1.2982,-1.2994,-1.3009,-1.3023,-1.3033,-1.3027,-1.2839,0,0,0,0,0,-1.2525,-1.258,-1.2616,-1.2695,-1.2715,-1.2735,-1.2767,-1.2769,-1.281,-1.2826,-1.2854,-1.2895,-1.295,-1.2987,-1.304,-1.3139,-1.315,-1.3184,-1.3195,-1.3203,-1.3214,-1.3269,-1.3285,-1.3117,-1.3117,-1.3117,0,0,-1.2566,-1.2597,-1.2632,-1.2704,-1.2734,-1.2792,-1.2749,-1.2812,-1.2856,-1.2836,-1.2918,-1.2939,-1.2985,-1.3077,-1.3119,-1.3099,-1.3262,-1.3213,-1.3219,-1.3225,-1.3278,-1.3294,-1.3308,-1.3122,-1.3121,-1.312,0,0,-1.2671,-1.2699,-1.2769,-1.2799,-1.2845,-1.2858,-1.2874,-1.2917,-1.2931,-1.3012,-1.2998,-1.305,-1.3146,-1.3179,-1.3209,-1.3325,-1.3313,-1.3342,-1.34,-1.3454,-1.3467,-1.3479,-1.3522,-1.3537,-1.3352,-1.3352,-1.3352,0,-1.2717,-1.2803,-1.2806,-1.2871,-1.2903,-1.2886,-1.2957,-1.2987,-1.3048,-1.3072,-1.3047,-1.3166,-1.3196,-1.3296,-1.3325,-1.3348,-1.3369,-1.3338,-1.3465,-1.3477,-1.3488,-1.3529,-1.3545,-1.3355,-1.3355,-1.3354,-1.3354,0,-1.2858,-1.2918,-1.2969,-1.3027,-1.3065,-1.3133,-1.3147,-1.3185,-1.3182,-1.3198,-1.3281,-1.3316,-1.3376,-1.3399,-1.3398,-1.35,-1.3485,-1.3462,-1.3419,-1.3507,-1.3546,-1.3562,-1.336,-1.3359,-1.3358,-1.3357,0,0,-1.2993,-1.3051,-1.307,-1.3096,-1.3145,-1.3192,-1.3258,-1.3316,-1.3349,-1.3391,-1.3448,-1.3529,-1.3508,-1.3542,-1.3543,-1.359,-1.3682,-1.3562,-1.3563,-1.3585,-1.3798,-1.3816,-1.3834,-1.3673,-1.3676,-1.3678,-1.3794,0,-1.3104,-1.3221,-1.3225,-1.3332,-1.3388,-1.3372,-1.343,-1.3466,-1.3482,-1.3532,-1.3549,-1.3607,-1.3574,-1.3595,-1.364,-1.3661,-1.3725,-1.3652,-1.3728,-1.373,-1.3719,-1.3854,-1.3875,-1.3983,-1.3809,-1.3812,-1.3814,0,-1.3249,-1.3295,-1.3408,-1.3448,-1.3472,-1.3524,-1.3577,-1.3625,-1.3666,-1.3674,-1.3711,-1.3706,-1.3775,-1.3727,-1.3823,-1.3773,-1.3804,-1.3819,-1.3823,-1.3832,-1.3779,-1.387,-1.4017,-1.4034,-1.3837,-1.3836,-1.3834,0,-1.3339,-1.3429,-1.3508,-1.3531,-1.3579,-1.3616,-1.3638,-1.3676,-1.3711,-1.3757,-1.378,-1.3834,-1.3864,-1.3906,-1.3916,-1.388,-1.4012,-1.3965,-1.4022,-1.4022,-1.4053,-1.4052,-1.421,-1.4069,-1.4069,-1.4068,-1.4068,0,-1.3464,-1.3534,-1.3549,-1.3598,-1.3676,-1.3679,-1.3757,-1.3776,-1.381,-1.3863,-1.3851,-1.3901,-1.391,-1.3962,-1.397,-1.4049,-1.4062,-1.4072,-1.4074,-1.4074,-1.4074,-1.4097,-1.409,-1.4073,-1.4072,-1.4071,-1.407,0,-1.3578,-1.3591,-1.3677,-1.3715,-1.3726,-1.3782,-1.3815,-1.3862,-1.3876,-1.3943,-1.3959,-1.3981,-1.4042,-1.4055,-1.4127,-1.4132,-1.4227,-1.422,-1.4213,-1.4213,-1.4271,-1.4266,-1.4451,-1.4477,-1.4317,-1.4318,-1.4319,0,-1.3659,-1.3712,-1.3756,-1.379,-1.3814,-1.3869,-1.3904,-1.3908,-1.3945,-1.3995,-1.4037,-1.4096,-1.4144,-1.4242,-1.4265,-1.432,-1.4316,-1.4377,-1.4325,-1.4324,-1.432,-1.4317,-1.4323,-1.4388,-1.439,-1.4391,-1.4392,0,-1.38,-1.3804,-1.3854,-1.3906,-1.3948,-1.3989,-1.4029,-1.4058,-1.4068,-1.411,-1.4172,-1.4209,-1.4282,-1.4342,-1.4397,-1.442,-1.4409,-1.4408,-1.4425,-1.4428,-1.4422,-1.4428,-1.4243,-1.4405,-1.4404,-1.4403,-1.4402,-1.4402,-1.3902,-1.3949,-1.3987,-1.4043,-1.4073,-1.411,-1.4157,-1.4175,-1.4226,-1.4286,-1.4285,-1.4353,-1.4392,-1.4465,-1.4491,-1.4545,-1.4526,-1.455,-1.4556,-1.4563,-1.4569,-1.4411,-1.4555,-1.4554,-1.4554,-1.4554,-1.4554,0,-1.4045,-1.4068,-1.4119,-1.4175,-1.4219,-1.4202,-1.4245,-1.4284,-1.4343,-1.438,-1.4427,-1.4498,-1.4555,-1.4582,-1.4639,-1.4676,-1.4673,-1.4691,-1.469,-1.4696,-1.4582,-1.4562,-1.4693,-1.4693,-1.4693,-1.4693,-1.4693,-1.4693,-1.4125,-1.4204,-1.4211,-1.4305,-1.4327,-1.4393,-1.4419,-1.4454,-1.4483,-1.4563,-1.461,-1.4626,-1.4659,-1.4718,-1.477,-1.4776,-1.4799,-1.482,-1.4825,-1.4718,-1.4704,-1.469,-1.4673,-1.4825,-1.4825,-1.4935,-1.4936,-1.4937]},{"header":{"parameterUnit":"m.s-1","parameterCategory":1,"la1":30.2991,"la2":30.254,"lo1":-89.0895,"lo2":-89.0444,"dy":0.0017,"dx":0.0017,"nx":28,"ny":28,"refTime":"2024-10-09T03:00:00:Z","depth":0,"parameterNumber":3,"parameterNumberName":"V-component_of_WINDS"},"data":[0,0,0,0,0,0,0,0,0,0,0,0,0,0,0,0,0,0,0,0,0,0,0,0,0,0,0,0,0,0,0,0,0,0,0,0,0,0,0,0,0,0,0,0,0,0,0,0,0,0,0,0,0,0,0,0,0,0,-5.9239,-5.924,0,-5.9307,-5.9308,-5.9309,-5.9217,-5.9214,-5.9211,-5.9208,-5.9272,-5.9277,-5.9282,0,0,0,0,0,0,0,0,0,0,0,0,0,-5.9023,-5.9028,-5.9239,-5.924,-5.9241,-5.9307,-5.9308,-5.9309,-5.9218,-5.9214,-5.921,-5.9206,-5.9271,-5.9276,-5.9282,0,0,0,0,0,0,0,0,0,0,0,0,0,-5.9107,-5.9029,-5.9239,-5.9203,-5.9201,-5.9307,-5.9308,-5.9309,-5.9219,-5.9214,-5.9209,-5.9204,-5.9269,-5.9276,-5.9283,-5.9426,0,0,-5.9305,-5.9308,0,0,0,0,0,0,0,0,-5.9102,-5.9115,-5.9208,-5.9206,-5.9203,-5.9249,-5.9256,-5.9348,-5.922,-5.9212,-5.9207,-5.9202,-5.9268,-5.9275,-5.9299,-5.9429,-5.9432,-5.9306,-5.931,-5.9313,-5.9315,0,0,0,0,0,0,0,-5.9096,-5.9111,-5.9266,-5.9209,-5.9206,-5.9182,-5.9188,-5.9273,-5.9266,-5.9212,-5.9206,-5.9215,-5.9266,-5.9292,-5.9299,-5.9433,-5.9305,-5.9312,-5.9316,-5.9319,-5.9682,-5.9688,0,0,0,0,0,0,-5.9096,-5.9107,-5.9263,-5.9268,-5.914,-5.919,-5.9197,-5.9239,-5.9265,-5.9265,-5.9219,-5.9211,-5.9282,-5.9291,-5.9301,-5.947,-5.9313,-5.932,-5.9324,-5.9677,-5.9684,-5.9689,0,0,0,0,0,0,-5.9091,-5.911,-5.9261,-5.9186,-5.9203,-5.9199,-5.9247,-5.9243,-5.9269,-5.9271,-5.9269,-5.9247,-5.9279,-5.9291,-5.9396,-5.9471,-5.9323,-5.9329,-5.9671,-5.9679,-5.9687,-5.9809,0,0,0,0,0,0,-5.9085,-5.9109,-5.9165,-5.9188,-5.9207,-5.9356,-5.9251,-5.9248,-5.9282,-5.9271,-5.9297,-5.9296,-5.9276,-5.9386,-5.9403,-5.9478,-5.9335,-5.9664,-5.9675,-5.9684,-5.9798,-5.982,-5.9839,0,0,0,0,0,-5.9078,-5.9196,-5.9168,-5.9188,-5.9277,-5.9361,-5.9372,-5.9347,-5.9289,-5.9344,-5.9345,-5.9295,-5.946,-5.9397,-5.9416,-5.9494,-5.9659,-5.9672,-5.9683,-5.9789,-5.9816,-5.9839,0,0,0,0,0,0,-5.918,-5.9198,-5.9168,-5.9297,-5.9328,-5.9345,-5.9414,-5.9377,-5.9424,-5.9412,-5.9378,-5.9384,-5.9496,-5.9505,-5.9435,-5.9634,-5.955,-5.9566,-5.9624,-5.9649,-5.9669,-5.9665,-5.9341,0,0,0,0,0,-5.9218,-5.9286,-5.9297,-5.941,-5.9427,-5.9418,-5.9454,-5.9432,-5.9463,-5.9475,-5.9484,-5.9514,-5.9572,-5.9611,-5.9664,-5.9799,-5.9803,-5.9862,-5.9883,-5.9899,-5.9914,-5.9985,-6.0012,-5.9729,-5.9729,-5.9729,0,0,-5.9296,-5.9314,-5.9359,-5.9431,-5.9453,-5.9522,-5.943,-5.9508,-5.9558,-5.9486,-5.9586,-5.9593,-5.9624,-5.9744,-5.9798,-5.9756,-5.9993,-5.9915,-5.9928,-5.9934,-6.0,-6.0027,-6.0051,-5.9737,-5.9736,-5.9734,0,0,-5.9474,-5.9496,-5.9592,-5.9616,-5.9651,-5.9644,-5.9667,-5.969,-5.9693,-5.9793,-5.974,-5.9799,-5.99,-5.9924,-5.995,-6.0137,-6.0093,-6.0156,-6.0262,-6.0332,-6.0354,-6.0374,-6.0441,-6.0465,-6.017,-6.017,-6.017,0,-5.9567,-5.9672,-5.9645,-5.9727,-5.976,-5.9699,-5.9795,-5.9819,-5.9869,-5.9892,-5.9845,-5.9971,-5.9987,-6.0112,-6.0158,-6.0181,-6.0205,-6.0153,-6.0354,-6.0373,-6.0391,-6.0454,-6.0479,-6.0178,-6.0177,-6.0176,-6.0175,0,-5.9783,-5.9857,-5.993,-5.9982,-6.0023,-6.0111,-6.0096,-6.014,-6.0115,-6.0113,-6.0215,-6.0232,-6.0289,-6.0317,-6.0292,-6.0438,-6.0411,-6.0359,-6.0274,-6.0426,-6.0484,-6.0508,-6.0188,-6.0186,-6.0183,-6.0182,0,0,-6.0028,-6.0065,-6.0092,-6.0115,-6.0149,-6.0204,-6.0289,-6.0346,-6.0384,-6.042,-6.049,-6.0577,-6.053,-6.0559,-6.0536,-6.0598,-6.0745,-6.0538,-6.0538,-6.0576,-6.0906,-6.0945,-6.0974,-6.0716,-6.0721,-6.0724,-6.0904,0,-6.0206,-6.0356,-6.0335,-6.0478,-6.0545,-6.0488,-6.0562,-6.059,-6.059,-6.0645,-6.0643,-6.0706,-6.0639,-6.0656,-6.0714,-6.0715,-6.0811,-6.0702,-6.0779,-6.0782,-6.0774,-6.1004,-6.1046,-6.1215,-6.0926,-6.093,-6.0933,0,-6.0435,-6.0482,-6.0632,-6.0656,-6.0683,-6.075,-6.0801,-6.0855,-6.0884,-6.088,-6.0913,-6.0879,-6.0962,-6.0876,-6.0989,-6.0916,-6.0946,-6.0951,-6.0957,-6.0963,-6.0867,-6.1017,-6.1268,-6.1293,-6.0969,-6.0966,-6.0964,0,-6.0598,-6.0698,-6.0802,-6.0823,-6.0853,-6.0901,-6.0916,-6.0941,-6.0976,-6.1019,-6.1042,-6.1093,-6.1122,-6.1162,-6.1142,-6.1081,-6.1259,-6.1171,-6.1257,-6.1257,-6.1297,-6.1295,-6.1556,-6.1316,-6.1316,-6.1316,-6.1315,0,-6.08,-6.0894,-6.0876,-6.0939,-6.1043,-6.1016,-6.1119,-6.1126,-6.1149,-6.1211,-6.1164,-6.1223,-6.1194,-6.125,-6.1235,-6.1331,-6.1344,-6.1342,-6.1337,-6.1346,-6.1347,-6.1366,-6.1354,-6.1322,-6.1321,-6.1319,-6.1318,0,-6.1,-6.0991,-6.11,-6.112,-6.1127,-6.1203,-6.1219,-6.1277,-6.1274,-6.1353,-6.137,-6.1364,-6.1428,-6.1413,-6.1482,-6.1472,-6.1593,-6.1573,-6.1584,-6.1579,-6.1666,-6.1658,-6.1949,-6.1985,-6.1722,-6.1725,-6.1727,0,-6.1129,-6.1201,-6.1229,-6.1269,-6.1287,-6.1351,-6.1388,-6.1364,-6.1403,-6.1443,-6.1496,-6.1557,-6.1604,-6.1709,-6.1709,-6.1762,-6.1743,-6.1841,-6.175,-6.1757,-6.1744,-6.174,-6.1747,-6.1859,-6.1862,-6.1864,-6.1866,0,-6.136,-6.1352,-6.1408,-6.1462,-6.1508,-6.1549,-6.1585,-6.1619,-6.1598,-6.1644,-6.1711,-6.1747,-6.1819,-6.1879,-6.1928,-6.194,-6.19,-6.1895,-6.1917,-6.1928,-6.1932,-6.1931,-6.1633,-6.1888,-6.1886,-6.1885,-6.1883,-6.1882,-6.1528,-6.1589,-6.1619,-6.1682,-6.1707,-6.1743,-6.1799,-6.1803,-6.1858,-6.1916,-6.1898,-6.1973,-6.2,-6.2061,-6.208,-6.2137,-6.21,-6.2132,-6.2141,-6.2149,-6.216,-6.1923,-6.2146,-6.2145,-6.2144,-6.2144,-6.2143,0,-6.1756,-6.1773,-6.1831,-6.1885,-6.1934,-6.1894,-6.1932,-6.1975,-6.2043,-6.2072,-6.212,-6.2196,-6.2254,-6.2259,-6.2313,-6.2358,-6.2341,-6.2373,-6.237,-6.2373,-6.219,-6.2166,-6.2386,-6.2386,-6.2386,-6.2386,-6.2386,-6.2386,-6.1881,-6.1982,-6.1978,-6.2091,-6.2105,-6.2181,-6.2206,-6.2237,-6.2261,-6.2348,-6.2397,-6.2401,-6.242,-6.2475,-6.2526,-6.2526,-6.2548,-6.2588,-6.2581,-6.241,-6.2386,-6.2363,-6.2339,-6.2593,-6.2593,-6.2758,-6.276,-6.2761]}]]